Year,Month,Day,Hour,Minute,Value (Times are PST for temperature in C)
2017,09,22,00,00,10.70
2017,09,22,00,01,10.70
2017,09,22,00,02,10.70
2017,09,22,00,03,10.70
2017,09,22,00,04,10.70
2017,09,22,00,05,10.70
2017,09,22,00,06,10.70
2017,09,22,00,07,10.70
2017,09,22,00,08,10.80
2017,09,22,00,09,10.80
2017,09,22,00,10,10.90
2017,09,22,00,11,10.90
2017,09,22,00,12,10.90
2017,09,22,00,13,11.00
2017,09,22,00,14,11.00
2017,09,22,00,15,11.10
2017,09,22,00,16,11.10
2017,09,22,00,17,11.20
2017,09,22,00,18,11.20
2017,09,22,00,19,11.20
2017,09,22,00,20,11.20
2017,09,22,00,21,11.20
2017,09,22,00,22,11.20
2017,09,22,00,23,11.20
2017,09,22,00,24,11.10
2017,09,22,00,25,11.10
2017,09,22,00,26,11.00
2017,09,22,00,27,11.00
2017,09,22,00,28,10.90
2017,09,22,00,29,10.90
2017,09,22,00,30,10.80
2017,09,22,00,31,10.80
2017,09,22,00,32,10.80
2017,09,22,00,33,10.70
2017,09,22,00,34,10.70
2017,09,22,00,35,10.70
2017,09,22,00,36,10.70
2017,09,22,00,37,10.60
2017,09,22,00,38,10.60
2017,09,22,00,39,10.60
2017,09,22,00,40,10.60
2017,09,22,00,41,10.50
2017,09,22,00,42,10.50
2017,09,22,00,43,10.40
2017,09,22,00,44,10.40
2017,09,22,00,45,10.30
2017,09,22,00,46,10.30
2017,09,22,00,47,10.30
2017,09,22,00,48,10.20
2017,09,22,00,49,10.20
2017,09,22,00,50,10.10
2017,09,22,00,51,10.10
2017,09,22,00,52,10.10
2017,09,22,00,53,10.00
2017,09,22,00,54,10.00
2017,09,22,00,55,10.00
2017,09,22,00,56,9.90
2017,09,22,00,57,9.90
2017,09,22,00,58,9.90
2017,09,22,00,59,9.90
2017,09,22,01,00,9.90
2017,09,22,01,01,9.80
2017,09,22,01,02,9.90
2017,09,22,01,03,9.90
2017,09,22,01,04,9.90
2017,09,22,01,05,9.90
2017,09,22,01,06,10.00
2017,09,22,01,07,10.00
2017,09,22,01,08,10.10
2017,09,22,01,09,10.10
2017,09,22,01,10,10.10
2017,09,22,01,11,10.10
2017,09,22,01,12,10.20
2017,09,22,01,13,10.20
2017,09,22,01,14,10.20
2017,09,22,01,15,10.20
2017,09,22,01,16,10.20
2017,09,22,01,17,10.20
2017,09,22,01,18,10.30
2017,09,22,01,19,10.30
2017,09,22,01,20,10.30
2017,09,22,01,21,10.40
2017,09,22,01,22,10.50
2017,09,22,01,23,10.60
2017,09,22,01,24,10.60
2017,09,22,01,25,10.70
2017,09,22,01,26,10.80
2017,09,22,01,27,10.80
2017,09,22,01,28,10.90
2017,09,22,01,29,10.90
2017,09,22,01,30,11.00
2017,09,22,01,31,11.00
2017,09,22,01,32,11.10
2017,09,22,01,33,11.20
2017,09,22,01,34,11.20
2017,09,22,01,35,11.20
2017,09,22,01,36,11.30
2017,09,22,01,37,11.30
2017,09,22,01,38,11.30
2017,09,22,01,39,11.30
2017,09,22,01,40,11.30
2017,09,22,01,41,11.30
2017,09,22,01,42,11.30
2017,09,22,01,43,11.40
2017,09,22,01,44,11.40
2017,09,22,01,45,11.40
2017,09,22,01,46,11.40
2017,09,22,01,47,11.40
2017,09,22,01,48,11.40
2017,09,22,01,49,11.40
2017,09,22,01,50,11.40
2017,09,22,01,51,11.40
2017,09,22,01,52,11.40
2017,09,22,01,53,11.40
2017,09,22,01,54,11.40
2017,09,22,01,55,11.40
2017,09,22,01,56,11.40
2017,09,22,01,57,11.30
2017,09,22,01,58,11.30
2017,09,22,01,59,11.20
2017,09,22,02,00,11.10
2017,09,22,02,01,11.10
2017,09,22,02,02,11.00
2017,09,22,02,03,10.90
2017,09,22,02,04,10.90
2017,09,22,02,05,10.80
2017,09,22,02,06,10.80
2017,09,22,02,07,10.80
2017,09,22,02,08,10.70
2017,09,22,02,09,10.60
2017,09,22,02,10,10.50
2017,09,22,02,11,10.40
2017,09,22,02,12,10.30
2017,09,22,02,13,10.30
2017,09,22,02,14,10.20
2017,09,22,02,15,10.20
2017,09,22,02,16,10.20
2017,09,22,02,17,10.20
2017,09,22,02,18,10.20
2017,09,22,02,19,10.20
2017,09,22,02,20,10.20
2017,09,22,02,21,10.20
2017,09,22,02,22,10.20
2017,09,22,02,23,10.10
2017,09,22,02,24,10.10
2017,09,22,02,25,10.00
2017,09,22,02,26,10.00
2017,09,22,02,27,10.00
2017,09,22,02,28,9.90
2017,09,22,02,29,9.90
2017,09,22,02,30,9.90
2017,09,22,02,31,9.90
2017,09,22,02,32,10.00
2017,09,22,02,33,10.00
2017,09,22,02,34,10.10
2017,09,22,02,35,10.10
2017,09,22,02,36,10.20
2017,09,22,02,37,10.20
2017,09,22,02,38,10.20
2017,09,22,02,39,10.20
2017,09,22,02,40,10.20
2017,09,22,02,41,10.20
2017,09,22,02,42,10.10
2017,09,22,02,43,10.10
2017,09,22,02,44,10.10
2017,09,22,02,45,10.00
2017,09,22,02,46,9.90
2017,09,22,02,47,9.90
2017,09,22,02,48,9.90
2017,09,22,02,49,9.80
2017,09,22,02,50,9.80
2017,09,22,02,51,9.80
2017,09,22,02,52,9.70
2017,09,22,02,53,9.60
2017,09,22,02,54,9.60
2017,09,22,02,55,9.50
2017,09,22,02,56,9.50
2017,09,22,02,57,9.40
2017,09,22,02,58,9.30
2017,09,22,02,59,9.20
2017,09,22,03,00,9.20
2017,09,22,03,01,9.10
2017,09,22,03,02,9.10
2017,09,22,03,03,9.00
2017,09,22,03,04,8.90
2017,09,22,03,05,8.90
2017,09,22,03,06,8.80
2017,09,22,03,07,8.80
2017,09,22,03,08,8.80
2017,09,22,03,09,8.80
2017,09,22,03,10,8.80
2017,09,22,03,11,8.80
2017,09,22,03,12,8.80
2017,09,22,03,13,8.90
2017,09,22,03,14,8.90
2017,09,22,03,15,8.90
2017,09,22,03,16,8.90
2017,09,22,03,17,8.90
2017,09,22,03,18,8.90
2017,09,22,03,19,8.90
2017,09,22,03,20,8.80
2017,09,22,03,21,8.80
2017,09,22,03,22,8.80
2017,09,22,03,23,8.80
2017,09,22,03,24,8.80
2017,09,22,03,25,8.90
2017,09,22,03,26,9.00
2017,09,22,03,27,9.10
2017,09,22,03,28,9.20
2017,09,22,03,29,9.40
2017,09,22,03,30,9.50
2017,09,22,03,31,9.70
2017,09,22,03,32,9.80
2017,09,22,03,33,9.80
2017,09,22,03,34,9.80
2017,09,22,03,35,9.80
2017,09,22,03,36,9.90
2017,09,22,03,37,9.90
2017,09,22,03,38,9.80
2017,09,22,03,39,9.80
2017,09,22,03,40,9.70
2017,09,22,03,41,9.70
2017,09,22,03,42,9.60
2017,09,22,03,43,9.60
2017,09,22,03,44,9.50
2017,09,22,03,45,9.50
2017,09,22,03,46,9.40
2017,09,22,03,47,9.40
2017,09,22,03,48,9.30
2017,09,22,03,49,9.30
2017,09,22,03,50,9.30
2017,09,22,03,51,9.30
2017,09,22,03,52,9.40
2017,09,22,03,53,9.50
2017,09,22,03,54,9.50
2017,09,22,03,55,9.60
2017,09,22,03,56,9.60
2017,09,22,03,57,9.60
2017,09,22,03,58,9.60
2017,09,22,03,59,9.70
2017,09,22,04,00,9.70
2017,09,22,04,01,9.70
2017,09,22,04,02,9.70
2017,09,22,04,03,9.70
2017,09,22,04,04,9.70
2017,09,22,04,05,9.70
2017,09,22,04,06,9.80
2017,09,22,04,07,9.80
2017,09,22,04,08,9.80
2017,09,22,04,09,9.90
2017,09,22,04,10,9.90
2017,09,22,04,11,9.90
2017,09,22,04,12,9.90
2017,09,22,04,13,9.90
2017,09,22,04,14,9.90
2017,09,22,04,15,9.80
2017,09,22,04,16,9.80
2017,09,22,04,17,9.80
2017,09,22,04,18,9.70
2017,09,22,04,19,9.60
2017,09,22,04,20,9.50
2017,09,22,04,21,9.40
2017,09,22,04,22,9.30
2017,09,22,04,23,9.20
2017,09,22,04,24,9.20
2017,09,22,04,25,9.10
2017,09,22,04,26,9.00
2017,09,22,04,27,8.90
2017,09,22,04,28,8.90
2017,09,22,04,29,8.80
2017,09,22,04,30,8.70
2017,09,22,04,31,8.70
2017,09,22,04,32,8.70
2017,09,22,04,33,8.70
2017,09,22,04,34,8.60
2017,09,22,04,35,8.60
2017,09,22,04,36,8.60
2017,09,22,04,37,8.60
2017,09,22,04,38,8.60
2017,09,22,04,39,8.70
2017,09,22,04,40,8.70
2017,09,22,04,41,8.70
2017,09,22,04,42,8.70
2017,09,22,04,43,8.70
2017,09,22,04,44,8.70
2017,09,22,04,45,8.80
2017,09,22,04,46,8.80
2017,09,22,04,47,8.80
2017,09,22,04,48,8.80
2017,09,22,04,49,8.80
2017,09,22,04,50,8.90
2017,09,22,04,51,8.90
2017,09,22,04,52,8.90
2017,09,22,04,53,8.90
2017,09,22,04,54,8.90
2017,09,22,04,55,8.90
2017,09,22,04,56,8.90
2017,09,22,04,57,8.90
2017,09,22,04,58,8.90
2017,09,22,04,59,8.80
2017,09,22,05,00,8.80
2017,09,22,05,01,8.80
2017,09,22,05,02,8.70
2017,09,22,05,03,8.70
2017,09,22,05,04,8.70
2017,09,22,05,05,8.60
2017,09,22,05,06,8.50
2017,09,22,05,07,8.50
2017,09,22,05,08,8.40
2017,09,22,05,09,8.30
2017,09,22,05,10,8.30
2017,09,22,05,11,8.20
2017,09,22,05,12,8.10
2017,09,22,05,13,8.10
2017,09,22,05,14,8.00
2017,09,22,05,15,8.00
2017,09,22,05,16,7.90
2017,09,22,05,17,7.90
2017,09,22,05,18,7.90
2017,09,22,05,19,7.80
2017,09,22,05,20,7.80
2017,09,22,05,21,7.80
2017,09,22,05,22,7.80
2017,09,22,05,23,7.80
2017,09,22,05,24,7.80
2017,09,22,05,25,7.80
2017,09,22,05,26,7.80
2017,09,22,05,27,7.80
2017,09,22,05,28,7.80
2017,09,22,05,29,7.80
2017,09,22,05,30,7.80
2017,09,22,05,31,7.80
2017,09,22,05,32,7.80
2017,09,22,05,33,7.80
2017,09,22,05,34,7.80
2017,09,22,05,35,7.80
2017,09,22,05,36,7.70
2017,09,22,05,37,7.70
2017,09,22,05,38,7.80
2017,09,22,05,39,7.80
2017,09,22,05,40,7.70
2017,09,22,05,41,7.70
2017,09,22,05,42,7.70
2017,09,22,05,43,7.70
2017,09,22,05,44,7.70
2017,09,22,05,45,7.60
2017,09,22,05,46,7.60
2017,09,22,05,47,7.50
2017,09,22,05,48,7.50
2017,09,22,05,49,7.40
2017,09,22,05,50,7.40
2017,09,22,05,51,7.40
2017,09,22,05,52,7.40
2017,09,22,05,53,7.30
2017,09,22,05,54,7.30
2017,09,22,05,55,7.30
2017,09,22,05,56,7.30
2017,09,22,05,57,7.30
2017,09,22,05,58,7.30
2017,09,22,05,59,7.20
2017,09,22,06,00,7.20
2017,09,22,06,01,7.20
2017,09,22,06,02,7.10
2017,09,22,06,03,7.10
2017,09,22,06,04,7.10
2017,09,22,06,05,7.00
2017,09,22,06,06,7.00
2017,09,22,06,07,6.90
2017,09,22,06,08,6.90
2017,09,22,06,09,6.90
2017,09,22,06,10,6.90
2017,09,22,06,11,6.80
2017,09,22,06,12,6.80
2017,09,22,06,13,6.80
2017,09,22,06,14,6.80
2017,09,22,06,15,6.80
2017,09,22,06,16,6.80
2017,09,22,06,17,6.80
2017,09,22,06,18,6.80
2017,09,22,06,19,6.80
2017,09,22,06,20,6.80
2017,09,22,06,21,6.80
2017,09,22,06,22,6.70
2017,09,22,06,23,6.70
2017,09,22,06,24,6.70
2017,09,22,06,25,6.70
2017,09,22,06,26,6.70
2017,09,22,06,27,6.70
2017,09,22,06,28,6.70
2017,09,22,06,29,6.60
2017,09,22,06,30,6.60
2017,09,22,06,31,6.60
2017,09,22,06,32,6.60
2017,09,22,06,33,6.60
2017,09,22,06,34,6.60
2017,09,22,06,35,6.60
2017,09,22,06,36,6.60
2017,09,22,06,37,6.60
2017,09,22,06,38,6.60
2017,09,22,06,39,6.60
2017,09,22,06,40,6.60
2017,09,22,06,41,6.60
2017,09,22,06,42,6.60
2017,09,22,06,43,6.60
2017,09,22,06,44,6.60
2017,09,22,06,45,6.60
2017,09,22,06,46,6.60
2017,09,22,06,47,6.60
2017,09,22,06,48,6.60
2017,09,22,06,49,6.60
2017,09,22,06,50,6.60
2017,09,22,06,51,6.60
2017,09,22,06,52,6.60
2017,09,22,06,53,6.60
2017,09,22,06,54,6.50
2017,09,22,06,55,6.50
2017,09,22,06,56,6.50
2017,09,22,06,57,6.50
2017,09,22,06,58,6.50
2017,09,22,06,59,6.50
2017,09,22,07,00,6.60
2017,09,22,07,01,6.60
2017,09,22,07,02,6.60
2017,09,22,07,03,6.60
2017,09,22,07,04,6.60
2017,09,22,07,05,6.60
2017,09,22,07,06,6.60
2017,09,22,07,07,6.60
2017,09,22,07,08,6.60
2017,09,22,07,09,6.60
2017,09,22,07,10,6.70
2017,09,22,07,11,6.70
2017,09,22,07,12,6.70
2017,09,22,07,13,6.70
2017,09,22,07,14,6.70
2017,09,22,07,15,6.70
2017,09,22,07,16,6.70
2017,09,22,07,17,6.70
2017,09,22,07,18,6.70
2017,09,22,07,19,6.70
2017,09,22,07,20,6.70
2017,09,22,07,21,6.70
2017,09,22,07,22,6.70
2017,09,22,07,23,6.70
2017,09,22,07,24,6.70
2017,09,22,07,25,6.70
2017,09,22,07,26,6.80
2017,09,22,07,27,6.80
2017,09,22,07,28,6.80
2017,09,22,07,29,6.80
2017,09,22,07,30,6.80
2017,09,22,07,31,6.80
2017,09,22,07,32,6.90
2017,09,22,07,33,6.90
2017,09,22,07,34,6.90
2017,09,22,07,35,7.00
2017,09,22,07,36,7.00
2017,09,22,07,37,7.10
2017,09,22,07,38,7.10
2017,09,22,07,39,7.20
2017,09,22,07,40,7.20
2017,09,22,07,41,7.20
2017,09,22,07,42,7.30
2017,09,22,07,43,7.30
2017,09,22,07,44,7.50
2017,09,22,07,45,7.60
2017,09,22,07,46,7.70
2017,09,22,07,47,7.80
2017,09,22,07,48,7.80
2017,09,22,07,49,7.90
2017,09,22,07,50,7.90
2017,09,22,07,51,7.90
2017,09,22,07,52,8.00
2017,09,22,07,53,8.00
2017,09,22,07,54,8.00
2017,09,22,07,55,8.10
2017,09,22,07,56,8.10
2017,09,22,07,57,8.10
2017,09,22,07,58,8.00
2017,09,22,07,59,8.10
2017,09,22,08,00,8.00
2017,09,22,08,01,8.10
2017,09,22,08,02,8.10
2017,09,22,08,03,8.10
2017,09,22,08,04,8.10
2017,09,22,08,05,8.20
2017,09,22,08,06,8.20
2017,09,22,08,07,8.20
2017,09,22,08,08,8.20
2017,09,22,08,09,8.20
2017,09,22,08,10,8.30
2017,09,22,08,11,8.30
2017,09,22,08,12,8.40
2017,09,22,08,13,8.40
2017,09,22,08,14,8.50
2017,09,22,08,15,8.60
2017,09,22,08,16,8.60
2017,09,22,08,17,8.70
2017,09,22,08,18,8.80
2017,09,22,08,19,8.80
2017,09,22,08,20,8.90
2017,09,22,08,21,9.00
2017,09,22,08,22,9.00
2017,09,22,08,23,9.10
2017,09,22,08,24,9.10
2017,09,22,08,25,9.20
2017,09,22,08,26,9.20
2017,09,22,08,27,9.30
2017,09,22,08,28,9.30
2017,09,22,08,29,9.40
2017,09,22,08,30,9.40
2017,09,22,08,31,9.40
2017,09,22,08,32,9.50
2017,09,22,08,33,9.50
2017,09,22,08,34,9.60
2017,09,22,08,35,9.60
2017,09,22,08,36,9.60
2017,09,22,08,37,9.60
2017,09,22,08,38,9.60
2017,09,22,08,39,9.60
2017,09,22,08,40,9.60
2017,09,22,08,41,9.60
2017,09,22,08,42,9.60
2017,09,22,08,43,9.70
2017,09,22,08,44,9.70
2017,09,22,08,45,9.70
2017,09,22,08,46,9.80
2017,09,22,08,47,9.80
2017,09,22,08,48,9.80
2017,09,22,08,49,9.80
2017,09,22,08,50,9.90
2017,09,22,08,51,9.90
2017,09,22,08,52,10.00
2017,09,22,08,53,10.00
2017,09,22,08,54,10.10
2017,09,22,08,55,10.10
2017,09,22,08,56,10.20
2017,09,22,08,57,10.20
2017,09,22,08,58,10.30
2017,09,22,08,59,10.40
2017,09,22,09,00,10.40
2017,09,22,09,01,10.50
2017,09,22,09,02,10.60
2017,09,22,09,03,10.70
2017,09,22,09,04,10.80
2017,09,22,09,05,10.80
2017,09,22,09,06,11.00
2017,09,22,09,07,11.00
2017,09,22,09,08,11.10
2017,09,22,09,09,11.20
2017,09,22,09,10,11.30
2017,09,22,09,11,11.30
2017,09,22,09,12,11.30
2017,09,22,09,13,11.40
2017,09,22,09,14,11.40
2017,09,22,09,15,11.50
2017,09,22,09,16,11.60
2017,09,22,09,17,11.60
2017,09,22,09,18,11.70
2017,09,22,09,19,11.70
2017,09,22,09,20,11.70
2017,09,22,09,21,11.80
2017,09,22,09,22,11.80
2017,09,22,09,23,11.80
2017,09,22,09,24,11.90
2017,09,22,09,25,11.90
2017,09,22,09,26,11.90
2017,09,22,09,27,11.90
2017,09,22,09,28,11.90
2017,09,22,09,29,12.00
2017,09,22,09,30,12.00
2017,09,22,09,31,12.00
2017,09,22,09,32,12.10
2017,09,22,09,33,12.10
2017,09,22,09,34,12.10
2017,09,22,09,35,12.20
2017,09,22,09,36,12.20
2017,09,22,09,37,12.30
2017,09,22,09,38,12.30
2017,09,22,09,39,12.40
2017,09,22,09,40,12.40
2017,09,22,09,41,12.50
2017,09,22,09,42,12.60
2017,09,22,09,43,12.60
2017,09,22,09,44,12.70
2017,09,22,09,45,12.80
2017,09,22,09,46,12.80
2017,09,22,09,47,12.90
2017,09,22,09,48,12.90
2017,09,22,09,49,13.00
2017,09,22,09,50,13.10
2017,09,22,09,51,13.10
2017,09,22,09,52,13.20
2017,09,22,09,53,13.20
2017,09,22,09,54,13.20
2017,09,22,09,55,13.20
2017,09,22,09,56,13.30
2017,09,22,09,57,13.30
2017,09,22,09,58,13.30
2017,09,22,09,59,13.40
2017,09,22,10,00,13.40
2017,09,22,10,01,13.30
2017,09,22,10,02,13.30
2017,09,22,10,03,13.40
2017,09,22,10,04,13.40
2017,09,22,10,05,13.40
2017,09,22,10,06,13.40
2017,09,22,10,07,13.50
2017,09,22,10,08,13.50
2017,09,22,10,09,13.60
2017,09,22,10,10,13.70
2017,09,22,10,11,13.70
2017,09,22,10,12,13.80
2017,09,22,10,13,13.90
2017,09,22,10,14,13.90
2017,09,22,10,15,13.90
2017,09,22,10,16,13.90
2017,09,22,10,17,13.90
2017,09,22,10,18,13.90
2017,09,22,10,19,13.90
2017,09,22,10,20,13.80
2017,09,22,10,21,13.80
2017,09,22,10,22,13.80
2017,09,22,10,23,13.80
2017,09,22,10,24,13.80
2017,09,22,10,25,13.80
2017,09,22,10,26,13.80
2017,09,22,10,27,13.90
2017,09,22,10,28,13.90
2017,09,22,10,29,13.90
2017,09,22,10,30,13.90
2017,09,22,10,31,13.90
2017,09,22,10,32,14.00
2017,09,22,10,33,14.00
2017,09,22,10,34,14.00
2017,09,22,10,35,14.00
2017,09,22,10,36,14.10
2017,09,22,10,37,14.10
2017,09,22,10,38,14.10
2017,09,22,10,39,14.10
2017,09,22,10,40,14.10
2017,09,22,10,41,14.20
2017,09,22,10,42,14.20
2017,09,22,10,43,14.30
2017,09,22,10,44,14.30
2017,09,22,10,45,14.30
2017,09,22,10,46,14.30
2017,09,22,10,47,14.30
2017,09,22,10,48,14.30
2017,09,22,10,49,14.30
2017,09,22,10,50,14.30
2017,09,22,10,51,14.30
2017,09,22,10,52,14.30
2017,09,22,10,53,14.40
2017,09,22,10,54,14.40
2017,09,22,10,55,14.50
2017,09,22,10,56,14.50
2017,09,22,10,57,14.60
2017,09,22,10,58,14.60
2017,09,22,10,59,14.60
2017,09,22,11,00,14.60
2017,09,22,11,01,14.70
2017,09,22,11,02,14.70
2017,09,22,11,03,14.70
2017,09,22,11,04,14.70
2017,09,22,11,05,14.80
2017,09,22,11,06,14.90
2017,09,22,11,07,14.90
2017,09,22,11,08,15.00
2017,09,22,11,09,15.10
2017,09,22,11,10,15.10
2017,09,22,11,11,15.20
2017,09,22,11,12,15.20
2017,09,22,11,13,15.20
2017,09,22,11,14,15.20
2017,09,22,11,15,15.20
2017,09,22,11,16,15.20
2017,09,22,11,17,15.20
2017,09,22,11,18,15.20
2017,09,22,11,19,15.20
2017,09,22,11,20,15.30
2017,09,22,11,21,15.30
2017,09,22,11,22,15.30
2017,09,22,11,23,15.40
2017,09,22,11,24,15.40
2017,09,22,11,25,15.50
2017,09,22,11,26,15.50
2017,09,22,11,27,15.50
2017,09,22,11,28,15.50
2017,09,22,11,29,15.50
2017,09,22,11,30,15.50
2017,09,22,11,31,15.60
2017,09,22,11,32,15.60
2017,09,22,11,33,15.60
2017,09,22,11,34,15.60
2017,09,22,11,35,15.70
2017,09,22,11,36,15.70
2017,09,22,11,37,15.80
2017,09,22,11,38,15.90
2017,09,22,11,39,16.00
2017,09,22,11,40,16.10
2017,09,22,11,41,16.20
2017,09,22,11,42,16.30
2017,09,22,11,43,16.30
2017,09,22,11,44,16.50
2017,09,22,11,45,16.60
2017,09,22,11,46,16.70
2017,09,22,11,47,16.90
2017,09,22,11,48,16.90
2017,09,22,11,49,17.00
2017,09,22,11,50,17.00
2017,09,22,11,51,17.00
2017,09,22,11,52,17.00
2017,09,22,11,53,16.90
2017,09,22,11,54,16.90
2017,09,22,11,55,16.90
2017,09,22,11,56,16.90
2017,09,22,11,57,16.80
2017,09,22,11,58,16.80
2017,09,22,11,59,16.80
2017,09,22,12,00,16.80
2017,09,22,12,01,16.80
2017,09,22,12,02,16.90
2017,09,22,12,03,16.90
2017,09,22,12,04,16.90
2017,09,22,12,05,16.90
2017,09,22,12,06,16.90
2017,09,22,12,07,17.00
2017,09,22,12,08,17.00
2017,09,22,12,09,16.90
2017,09,22,12,10,16.90
2017,09,22,12,11,16.90
2017,09,22,12,12,16.90
2017,09,22,12,13,16.90
2017,09,22,12,14,17.00
2017,09,22,12,15,17.00
2017,09,22,12,16,17.10
2017,09,22,12,17,17.10
2017,09,22,12,18,17.20
2017,09,22,12,19,17.20
2017,09,22,12,20,17.20
2017,09,22,12,21,17.30
2017,09,22,12,22,17.40
2017,09,22,12,23,17.50
2017,09,22,12,24,17.50
2017,09,22,12,25,17.60
2017,09,22,12,26,17.70
2017,09,22,12,27,17.70
2017,09,22,12,28,17.70
2017,09,22,12,29,17.80
2017,09,22,12,30,17.70
2017,09,22,12,31,17.70
2017,09,22,12,32,17.70
2017,09,22,12,33,17.70
2017,09,22,12,34,17.70
2017,09,22,12,35,17.70
2017,09,22,12,36,17.70
2017,09,22,12,37,17.70
2017,09,22,12,38,17.60
2017,09,22,12,39,17.60
2017,09,22,12,40,17.60
2017,09,22,12,41,17.60
2017,09,22,12,42,17.60
2017,09,22,12,43,17.70
2017,09,22,12,44,17.70
2017,09,22,12,45,17.70
2017,09,22,12,46,17.70
2017,09,22,12,47,17.70
2017,09,22,12,48,17.70
2017,09,22,12,49,17.70
2017,09,22,12,50,17.70
2017,09,22,12,51,17.70
2017,09,22,12,52,17.80
2017,09,22,12,53,17.80
2017,09,22,12,54,17.90
2017,09,22,12,55,17.90
2017,09,22,12,56,17.90
2017,09,22,12,57,17.80
2017,09,22,12,58,17.80
2017,09,22,12,59,17.80
2017,09,22,13,00,17.80
2017,09,22,13,01,17.80
2017,09,22,13,02,17.80
2017,09,22,13,03,17.70
2017,09,22,13,04,17.70
2017,09,22,13,05,17.70
2017,09,22,13,06,17.70
2017,09,22,13,07,17.70
2017,09,22,13,08,17.70
2017,09,22,13,09,17.70
2017,09,22,13,10,17.70
2017,09,22,13,11,17.70
2017,09,22,13,12,17.80
2017,09,22,13,13,17.70
2017,09,22,13,14,17.70
2017,09,22,13,15,17.80
2017,09,22,13,16,17.80
2017,09,22,13,17,17.80
2017,09,22,13,18,17.80
2017,09,22,13,19,17.80
2017,09,22,13,20,17.90
2017,09,22,13,21,18.00
2017,09,22,13,22,18.00
2017,09,22,13,23,18.10
2017,09,22,13,24,18.10
2017,09,22,13,25,18.10
2017,09,22,13,26,18.20
2017,09,22,13,27,18.20
2017,09,22,13,28,18.20
2017,09,22,13,29,18.20
2017,09,22,13,30,18.20
2017,09,22,13,31,18.20
2017,09,22,13,32,18.20
2017,09,22,13,33,18.20
2017,09,22,13,34,18.20
2017,09,22,13,35,18.10
2017,09,22,13,36,18.10
2017,09,22,13,37,18.10
2017,09,22,13,38,18.10
2017,09,22,13,39,18.20
2017,09,22,13,40,18.20
2017,09,22,13,41,18.20
2017,09,22,13,42,18.30
2017,09,22,13,43,18.30
2017,09,22,13,44,18.40
2017,09,22,13,45,18.40
2017,09,22,13,46,18.40
2017,09,22,13,47,18.40
2017,09,22,13,48,18.40
2017,09,22,13,49,18.50
2017,09,22,13,50,18.50
2017,09,22,13,51,18.50
2017,09,22,13,52,18.50
2017,09,22,13,53,18.50
2017,09,22,13,54,18.60
2017,09,22,13,55,18.60
2017,09,22,13,56,18.60
2017,09,22,13,57,18.70
2017,09,22,13,58,18.70
2017,09,22,13,59,18.70
2017,09,22,14,00,18.80
2017,09,22,14,01,18.80
2017,09,22,14,02,18.90
2017,09,22,14,03,18.90
2017,09,22,14,04,18.90
2017,09,22,14,05,18.90
2017,09,22,14,06,19.00
2017,09,22,14,07,19.00
2017,09,22,14,08,19.10
2017,09,22,14,09,19.10
2017,09,22,14,10,19.10
2017,09,22,14,11,19.10
2017,09,22,14,12,19.10
2017,09,22,14,13,19.20
2017,09,22,14,14,19.20
2017,09,22,14,15,19.10
2017,09,22,14,16,19.10
2017,09,22,14,17,19.10
2017,09,22,14,18,19.10
2017,09,22,14,19,19.10
2017,09,22,14,20,19.10
2017,09,22,14,21,19.00
2017,09,22,14,22,19.00
2017,09,22,14,23,19.10
2017,09,22,14,24,19.10
2017,09,22,14,25,19.10
2017,09,22,14,26,19.10
2017,09,22,14,27,19.00
2017,09,22,14,28,19.00
2017,09,22,14,29,19.00
2017,09,22,14,30,19.10
2017,09,22,14,31,19.20
2017,09,22,14,32,19.20
2017,09,22,14,33,19.20
2017,09,22,14,34,19.20
2017,09,22,14,35,19.20
2017,09,22,14,36,19.30
2017,09,22,14,37,19.30
2017,09,22,14,38,19.30
2017,09,22,14,39,19.30
2017,09,22,14,40,19.40
2017,09,22,14,41,19.40
2017,09,22,14,42,19.40
2017,09,22,14,43,19.40
2017,09,22,14,44,19.50
2017,09,22,14,45,19.50
2017,09,22,14,46,19.50
2017,09,22,14,47,19.60
2017,09,22,14,48,19.70
2017,09,22,14,49,19.80
2017,09,22,14,50,19.90
2017,09,22,14,51,19.90
2017,09,22,14,52,19.90
2017,09,22,14,53,19.90
2017,09,22,14,54,20.00
2017,09,22,14,55,20.00
2017,09,22,14,56,20.00
2017,09,22,14,57,20.10
2017,09,22,14,58,20.10
2017,09,22,14,59,20.10
2017,09,22,15,00,20.10
2017,09,22,15,01,20.10
2017,09,22,15,02,20.10
2017,09,22,15,03,20.10
2017,09,22,15,04,20.20
2017,09,22,15,05,20.20
2017,09,22,15,06,20.20
2017,09,22,15,07,20.10
2017,09,22,15,08,20.10
2017,09,22,15,09,20.10
2017,09,22,15,10,20.00
2017,09,22,15,11,20.00
2017,09,22,15,12,20.00
2017,09,22,15,13,20.00
2017,09,22,15,14,20.00
2017,09,22,15,15,20.00
2017,09,22,15,16,20.00
2017,09,22,15,17,20.10
2017,09,22,15,18,20.10
2017,09,22,15,19,20.00
2017,09,22,15,20,20.00
2017,09,22,15,21,19.90
2017,09,22,15,22,19.90
2017,09,22,15,23,19.90
2017,09,22,15,24,19.90
2017,09,22,15,25,19.90
2017,09,22,15,26,19.90
2017,09,22,15,27,20.00
2017,09,22,15,28,20.00
2017,09,22,15,29,20.10
2017,09,22,15,30,20.10
2017,09,22,15,31,20.10
2017,09,22,15,32,20.10
2017,09,22,15,33,20.20
2017,09,22,15,34,20.20
2017,09,22,15,35,20.30
2017,09,22,15,36,20.30
2017,09,22,15,37,20.30
2017,09,22,15,38,20.30
2017,09,22,15,39,20.30
2017,09,22,15,40,20.30
2017,09,22,15,41,20.20
2017,09,22,15,42,20.30
2017,09,22,15,43,20.30
2017,09,22,15,44,20.30
2017,09,22,15,45,20.30
2017,09,22,15,46,20.30
2017,09,22,15,47,20.30
2017,09,22,15,48,20.30
2017,09,22,15,49,20.30
2017,09,22,15,50,20.30
2017,09,22,15,51,20.30
2017,09,22,15,52,20.30
2017,09,22,15,53,20.30
2017,09,22,15,54,20.30
2017,09,22,15,55,20.30
2017,09,22,15,56,20.20
2017,09,22,15,57,20.20
2017,09,22,15,58,20.20
2017,09,22,15,59,20.10
2017,09,22,16,00,20.10
2017,09,22,16,01,20.10
2017,09,22,16,02,20.10
2017,09,22,16,03,20.10
2017,09,22,16,04,20.00
2017,09,22,16,05,20.10
2017,09,22,16,06,20.10
2017,09,22,16,07,20.10
2017,09,22,16,08,20.10
2017,09,22,16,09,20.10
2017,09,22,16,10,20.10
2017,09,22,16,11,20.10
2017,09,22,16,12,20.10
2017,09,22,16,13,20.10
2017,09,22,16,14,20.10
2017,09,22,16,15,20.10
2017,09,22,16,16,20.00
2017,09,22,16,17,20.00
2017,09,22,16,18,19.90
2017,09,22,16,19,19.90
2017,09,22,16,20,19.90
2017,09,22,16,21,19.90
2017,09,22,16,22,19.90
2017,09,22,16,23,19.90
2017,09,22,16,24,19.90
2017,09,22,16,25,19.90
2017,09,22,16,26,20.00
2017,09,22,16,27,20.00
2017,09,22,16,28,20.00
2017,09,22,16,29,20.10
2017,09,22,16,30,20.10
2017,09,22,16,31,20.10
2017,09,22,16,32,20.20
2017,09,22,16,33,20.20
2017,09,22,16,34,20.20
2017,09,22,16,35,20.20
2017,09,22,16,36,20.20
2017,09,22,16,37,20.20
2017,09,22,16,38,20.20
2017,09,22,16,39,20.20
2017,09,22,16,40,20.20
2017,09,22,16,41,20.20
2017,09,22,16,42,20.20
2017,09,22,16,43,20.20
2017,09,22,16,44,20.30
2017,09,22,16,45,20.30
2017,09,22,16,46,20.30
2017,09,22,16,47,20.20
2017,09,22,16,48,20.30
2017,09,22,16,49,20.20
2017,09,22,16,50,20.20
2017,09,22,16,51,20.20
2017,09,22,16,52,20.20
2017,09,22,16,53,20.20
2017,09,22,16,54,20.20
2017,09,22,16,55,20.20
2017,09,22,16,56,20.10
2017,09,22,16,57,20.10
2017,09,22,16,58,20.10
2017,09,22,16,59,20.00
2017,09,22,17,00,20.00
2017,09,22,17,01,19.90
2017,09,22,17,02,19.80
2017,09,22,17,03,19.80
2017,09,22,17,04,19.70
2017,09,22,17,05,19.60
2017,09,22,17,06,19.60
2017,09,22,17,07,19.50
2017,09,22,17,08,19.50
2017,09,22,17,09,19.50
2017,09,22,17,10,19.40
2017,09,22,17,11,19.40
2017,09,22,17,12,19.40
2017,09,22,17,13,19.40
2017,09,22,17,14,19.30
2017,09,22,17,15,19.30
2017,09,22,17,16,19.20
2017,09,22,17,17,19.20
2017,09,22,17,18,19.20
2017,09,22,17,19,19.20
2017,09,22,17,20,19.10
2017,09,22,17,21,19.10
2017,09,22,17,22,19.10
2017,09,22,17,23,19.00
2017,09,22,17,24,19.00
2017,09,22,17,25,19.00
2017,09,22,17,26,18.90
2017,09,22,17,27,18.90
2017,09,22,17,28,18.90
2017,09,22,17,29,18.80
2017,09,22,17,30,18.80
2017,09,22,17,31,18.80
2017,09,22,17,32,18.80
2017,09,22,17,33,18.80
2017,09,22,17,34,18.70
2017,09,22,17,35,18.70